This is the latest recevied weather packets stored in our database for station/object S59DKS-10. If no packets are shown the sender has not sent any weather packets the latest 10 day(s).
| Time | Temp. | Humidity | Pressure | Rain* | Wind** | Luminosity | Snow |
|---|---|---|---|---|---|---|---|
| 1777651621 | 18.33° C | 29% | 1026.1 hPa | - | - | - | - |
| 1777651450 | 18.33° C | 29% | 1026.1 hPa | - | - | - | - |
| 1777650734 | 18.89° C | 29% | 1026 hPa | - | - | - | - |
| 1777650552 | 18.89° C | 29% | 1026 hPa | - | - | - | - |
| 1777649652 | 18.89° C | 29% | 1026.1 hPa | - | - | - | - |
| 1777648755 | 18.89° C | 29% | 1026.2 hPa | - | - | - | - |
| 1777647855 | 19.44° C | 28% | 1026.2 hPa | - | - | - | - |
| 1777646957 | 18.89° C | 28% | 1026.2 hPa | - | - | - | - |
| 1777646058 | 18.89° C | 27% | 1026.2 hPa | - | - | - | - |
| 1777645213 | 19.44° C | 28% | 1026.3 hPa | - | - | - | - |
| 1777645159 | 19.44° C | 28% | 1026.3 hPa | - | - | - | - |
| 1777644260 | 19.44° C | 28% | 1026.4 hPa | - | - | - | - |
| 1777643361 | 19.44° C | 27% | 1026.6 hPa | - | - | - | - |
| 1777642461 | 19.44° C | 27% | 1026.8 hPa | - | - | - | - |
| 1777641562 | 20.56° C | 27% | 1026.9 hPa | - | - | - | - |
| 1777640657 | 19.44° C | 27% | 1027.1 hPa | - | - | - | - |
| 1777639758 | 18.89° C | 28% | 1027.1 hPa | - | - | - | - |
| 1777638859 | 18.33° C | 27% | 1027.3 hPa | - | - | - | - |
| 1777637960 | 18.89° C | 27% | 1027.5 hPa | - | - | - | - |
| 1777637062 | 18.89° C | 27% | 1027.6 hPa | - | - | - | - |
| 1777636163 | 18.33° C | 27% | 1027.7 hPa | - | - | - | - |
| 1777635264 | 17.78° C | 26% | 1027.8 hPa | - | - | - | - |
| 1777634366 | 17.78° C | 27% | 1027.9 hPa | - | - | - | - |
| 1777633467 | 17.22° C | 26% | 1028.1 hPa | - | - | - | - |
| 1777632568 | 18.33° C | 27% | 1028.3 hPa | - | - | - | - |
* Rain since midnight (hover to see other rain measurements)
** Current wind speed in m/s (hover to see current wind gust speed)